Dewpoint
6 4 0 -3 -7 -8 -8 -8 -8 -8 -8 -8 -7 -2 1 -0 -3 -10 -10 -10 -12 -14 -16 -12 -8 -9 -7 -1 -4 -6 -8 -10 -10 -8 -8 -4 -4 -4 -2 -4 -5 -4 -5 -6 -6 -6 -4
1 -1 -5 -9 -10 -10 -9 -9 -9 -9 -9 -9 -10 -10 -1 -0 -1 -2 -8 -13 -15 -16 -14 -13 -10 -7 -8 -3 -6 -6 -6 -7 -10 -8 -5 -4 -5 -5 -5 -5 -4 -6 -5 -5 -6 -5 -4
-6 -8 -11 -11 -11 -10 -10 -10 -10 -9 -10 -10 -10 -12 -11 0 -1 -1 -1 -6 -11 -13 -13 -12 -11 -9 -6 -5 -6 -7 -6 -8 -9 -8 -4 -5 -5 -5 -5 -4 -4 -5 -3 -4 -4 -5 -3
-10 -12 -12 -11 -11 -11 -11 -10 -10 -10 -10 -10 -10 -11 -13 -11 -1 -2 -3 -4 -2 -9 -11 -11 -11 -9 -4 -5 -5 -6 -6 -6 -8 -8 -6 -5 -6 -4 -4 -4 -5 -4 -4 -2 -3 -3 -2
-12 -12 -13 -12 -11 -11 -11 -11 -11 -11 -11 -11 -11 -11 -12 -15 -10 -1 -3 -5 -4 -3 -3 -9 -6 -8 -5 -5 -6 -7 -5 -5 -6 -7 -8 -8 -6 -4 -3 -3 -2 -3 -1 -2 -1 -3 -1
-11 -12 -13 -12 -12 -11 -11 -11 -11 -11 -11 -12 -12 -12 -13 -13 -14 -1 -2 -5 -4 -4 -2 -0 -2 -3 -4 -5 -5 -5 -5 -4 -4 -4 -5 -5 -4 -2 -2 -2 0 -1 -2 -3 -2 -2 -2
-10 -12 -13 -12 -11 -10 -9 -9 -9 -10 -11 -12 -12 -11 -11 -13 -11 -2 -2 -1 1 1 -1 -2 -3 -4 -5 -5 -6 -5 -5 -4 -4 -3 -1 -3 0 0 -2 -3 -4 -4 -3 -3 -4 -4 -2
-1 -11 -12 -11 -10 -8 -8 -9 -9 -8 -8 -9 -11 -11 -9 -8 -10 -11 -9 -0 -0 0 2 -2 -1 -3 -4 -5 -4 -3 -4 -4 -4 -0 -2 0 2 -1 -3 -3 -2 -1 -2 -2 -3 -3 -3
2 -5 -8 -7 -6 -6 -6 -7 -8 -8 -9 -8 -8 -9 -9 -7 -9 -9 -7 -2 -1 2 4 0 0 -1 -4 -5 -4 -3 -5 -4 -2 -0 -0 0 -0 -3 -2 -1 -1 -1 -1 -2 -2 -2 -3
2 1 -0 0 -0 -1 -1 -2 -2 -2 -3 -4 -5 -6 -7 -7 -0 -3 1 -6 -2 3 4 0 -2 -2 -3 -3 -2 -3 -3 -3 -2 -0 -1 -0 -2 -1 -1 -1 -2 0 -3 -2 -1 0 2
2 2 3 2 2 1 1 1 1 0 -0 -1 -1 -2 -3 -4 -1 0 -4 -6 -3 3 7 -1 -1 -2 -2 -2 -1 -2 -2 -3 -0 -1 -2 2 -1 -1 1 -1 -2 -1 -3 -2 -1 0 1
3 3 3 1 -1 -2 -2 -3 -4 -3 -1 0 1 0 -0 -0 0 1 -0 -3 0 6 6 2 0 -0 -1 -2 -1 -2 -3 -3 -2 -1 -1 -1 -3 -2 -1 -2 -3 -2 -2 -1 -1 1 5
3 2 -2 -7 -10 -16 -19 -24 -26 -28 -30 -28 -11 -1 0 -0 4 2 1 -0 5 2 -6 0 2 1 1 1 -0 -0 -0 -0 1 2 3 -0 -0 -2 -3 -1 -3 -1 0 5 6 7 7
-2 -7 -13 -17 -19 -21 -23 -25 -28 -30 -31 -32 -32 -14 -2 -0 2 2 1 5 1 -6 -7 -3 -0 0 2 -2 1 1 1 2 -1 -0 2 4 5 0 -2 -1 1 0 1 5 3 4 1
-13 -15 -16 -18 -20 -22 -24 -27 -31 -34 -35 -35 -31 -12 6 4 3 3 5 5 -2 -2 -2 1 -3 -2 -2 0 0 1 2 2 -1 -1 3 1 1 -1 -2 -3 -2 1 2 -1 2 1 3
-11 -15 -18 -25 -32 -35 -37 -37 -37 -37 -36 -33 -10 4 4 5 4 4 5 3 2 0 0 -1 -0 -4 -4 -6 1 0 -1 -4 -1 -1 -1 1 3 -2 -2 -3 -3 -1 -1 2 3 4 2
-15 -19 -23 -30 -31 -31 -32 -34 -34 -34 -35 -29 -5 2 2 2 3 5 6 4 3 2 3 3 3 3 3 2 1 1 -2 -3 1 0 -2 -1 0 0 -1 0 1 1 1 0 0 1 2
-10 -12 -19 -25 -28 -29 -30 -31 -32 -33 -34 -26 -2 -1 0 2 5 3 3 3 1 3 2 3 3 4 4 5 6 4 3 3 1 1 4 1 1 2 -1 -4 -4 -4 -1 -2 1 2 1
-8 -9 -14 -21 -27 -28 -29 -29 -31 -32 -32 -12 -1 -1 -3 1 3 2 -3 -2 -2 2 2 3 4 3 2 4 5 5 4 2 -0 3 4 4 4 5 4 -0 -1 -1 0 4 4 2 4
-3 -4 -4 -8 -19 -22 -23 -24 -28 -31 -32 -10 -3 -3 -9 -6 -11 -11 -10 -12 -9 -9 0 -3 1 2 -1 -1 -0 4 3 1 -1 -4 1 3 5 7 7 6 4 7 4 0 4 7 6
-2 -2 -2 -2 -4 -9 -14 -20 -21 -26 -30 -9 -8 -3 -7 -8 -11 -11 -13 -12 -8 -7 -8 -12 -8 -5 -7 -8 -10 -10 -7 -6 -8 -9 -1 2 3 2 1 -0 -1 -2 -3 -5 -3 -5 -2
-7 -8 -5 -3 -2 -2 -5 -8 -15 -19 -22 -23 -5 -6 -8 -9 -11 -11 -12 -7 -8 -8 -8 -9 -8 -8 -9 -8 -9 -4 -6 -9 -12 -13 -12 -7 0 -7 -4 -6 -5 -5 -6 -6 -9 -9 -6
-3 -3 -2 -2 -6 -5 -5 -4 -6 -11 -16 -10 -6 -5 -5 -9 -10 -10 -8 -9 -8 -8 -8 -9 -9 -8 -8 -9 -9 -8 -8 -8 -11 -12 -12 -10 -7 -4 -4 -7 -4 -2 -8 -9 -11 -12 -11
-2 -2 -3 -3 -3 -3 -7 -8 -5 -7 -8 -6 -6 -5 -7 -8 -10 -9 -10 -10 -9 -10 -8 -10 -11 -9 -9 -9 -9 -10 -11 -11 -13 -9 -7 -6 -4 -4 -4 -2 -0 -9 -10 -10 -12 -12 -13
-3 -3 -2 -3 -4 -2 -3 -6 -4 -3 -5 -4 -5 -5 -5 -6 -8 -10 -9 -9 -9 -10 -9 -10 -11 -10 -9 -9 -6 -6 -8 -6 -1 -6 -8 -6 -2 -5 -2 -4 -7 -8 -11 -12 -12 -12 -12
-4 -4 -4 -4 -6 -5 -3 -3 -4 -4 -3 -4 -4 -7 -4 -6 -7 -9 -8 -9 -7 -7 -8 -9 -9 -9 -8 -5 -4 -6 -4 -6 -6 -8 -9 -10 -8 -4 -6 -5 -3 -11 -14 -13 -11 -11 -14
-12 -6 -6 -6 -4 -5 -6 -4 -2 -3 -3 -4 -4 -7 -4 -5 -7 -6 -6 -6 -7 -6 -6 -8 -7 -7 -7 -5 -3 -4 -3 -9 -4 -4 -5 -6 -9 -7 -7 -8 -13 -13 -14 -12 -13 -14 -14
-18 -24 -20 -4 -4 -3 -3 -5 -6 -3 -2 -3 -4 -5 -5 -4 -6 -5 -5 -4 -5 -6 -4 -5 -6 -6 -7 -4 -3 -4 -4 -5 -6 -9 -8 -11 -12 -9 -11 -9 -9 -14 -17 -16 -16 -15 -15
-17 -22 -22 -18 -4 -3 -3 -4 -7 -6 -2 -2 -3 -4 -4 -5 -7 -8 -7 -8 -8 -6 -4 -5 -6 -6 -6 -5 -3 -4 -5 -5 -7 -7 -13 -10 -13 -12 -12 -13 -14 -14 -15 -15 -15 -15 -15
Wind_Speed
13 15 17 17 17 17 18 18 18 19 19 19 18 15 11 7 6 5 5 6 5 6 5 6 8 8 7 5 8 7 6 5 6 7 10 9 10 12 7 5 7 8 8 15 9 9 8
14 14 15 16 16 17 17 18 18 19 19 19 19 18 16 11 6 6 6 6 6 6 6 7 8 8 7 6 8 6 7 6 7 8 9 11 5 8 10 9 6 9 9 15 12 13 9
15 15 16 15 15 16 17 18 18 19 19 20 20 21 18 15 8 5 5 7 7 8 8 8 8 8 9 15 7 7 6 7 8 8 7 8 11 6 5 6 7 7 8 9 13 15 5
14 16 16 15 15 16 16 18 18 19 19 20 20 21 20 16 9 7 9 8 8 10 10 9 9 7 9 9 13 12 9 7 8 9 11 11 10 6 8 7 5 4 6 4 4 12 6
14 15 15 15 16 16 17 17 18 19 20 20 20 20 20 18 13 7 10 8 8 9 10 8 6 6 7 6 13 11 10 5 6 6 6 4 5 5 5 3 5 7 6 8 4 7 6
14 14 14 14 15 16 17 17 18 19 19 19 20 20 20 19 13 9 10 9 6 5 6 7 7 5 11 5 6 13 13 11 4 6 3 5 5 3 4 5 6 5 5 8 7 9 8
14 15 14 14 14 15 16 17 18 18 19 20 20 19 19 19 13 10 10 5 5 3 5 10 6 6 5 9 6 11 12 12 7 6 5 8 4 11 12 13 15 11 11 10 12 5 7
16 17 17 16 15 16 16 17 18 19 19 19 19 19 19 18 11 11 9 3 4 6 11 19 24 20 13 7 5 11 13 11 8 8 9 3 11 14 12 11 7 8 10 11 10 4 5
17 19 17 16 17 18 18 19 19 19 19 19 20 19 17 17 9 14 9 7 8 8 5 2 6 10 14 11 8 18 20 11 6 8 10 12 6 3 8 11 8 10 10 11 11 4 6
17 19 20 20 20 19 20 20 20 20 20 20 19 19 18 14 4 12 5 11 10 7 4 4 3 3 7 6 5 10 17 7 6 7 10 12 15 19 11 8 8 11 6 6 9 4 4
20 22 23 23 23 23 22 21 21 21 21 20 18 18 15 13 11 6 7 10 9 3 5 4 4 4 4 6 3 4 10 6 7 7 3 6 5 4 6 14 8 8 2 2 3 4 6
21 22 23 24 25 25 24 23 22 22 22 22 18 16 15 12 10 5 10 9 4 2 7 3 5 4 4 8 4 3 4 5 2 6 10 12 3 3 5 2 1 5 2 2 1 1 5
20 21 23 23 23 22 22 22 23 23 23 23 18 15 13 10 5 9 8 3 2 4 1 4 1 3 5 4 6 8 6 6 6 3 7 8 20 6 5 3 2 3 3 3 2 1 8
21 22 22 22 22 22 21 21 20 21 23 24 18 10 7 7 7 6 2 3 5 5 5 3 1 4 4 3 6 9 5 9 12 8 5 4 6 14 8 10 7 7 8 5 6 5 4
18 18 19 20 21 22 23 24 24 24 25 27 15 4 6 8 3 1 0 4 3 6 5 9 10 7 6 7 4 5 10 10 7 15 8 5 7 5 5 3 6 4 6 7 6 10 4
17 18 20 22 22 22 23 25 26 25 25 25 12 10 11 9 4 2 2 4 5 12 10 8 6 6 12 12 4 6 5 3 1 1 5 3 12 4 4 4 3 1 3 2 3 4 6
18 19 21 22 23 25 25 26 27 26 25 19 9 3 15 6 3 1 2 4 5 17 19 9 13 14 17 17 17 17 13 7 17 11 6 5 4 5 6 6 7 3 3 5 3 6 7
19 21 22 24 25 26 26 26 26 26 24 15 10 2 15 9 3 2 3 7 11 12 18 7 6 8 6 11 7 9 12 10 25 15 8 9 5 7 12 9 10 12 13 15 11 13 5
22 23 24 24 24 25 26 25 24 24 25 18 5 4 12 6 3 4 8 6 4 6 6 8 7 7 8 6 6 8 7 11 22 16 11 12 5 8 11 8 16 13 4 13 14 8 16
26 25 27 26 25 25 26 26 25 22 19 13 6 3 8 11 11 5 5 5 7 10 4 5 3 2 5 4 5 6 11 8 23 15 7 7 4 6 5 4 7 4 12 12 7 4 8
23 26 27 27 29 31 32 30 29 24 18 6 8 4 4 4 6 7 7 5 8 8 11 10 1 4 7 5 16 10 14 12 12 22 5 5 5 8 16 16 15 10 11 12 6 6 4
17 20 20 23 25 28 32 34 32 28 19 23 5 6 8 5 8 7 6 9 8 11 7 7 8 13 13 11 13 11 14 7 9 9 9 5 5 14 16 15 14 14 15 7 12 9 6
24 27 28 28 26 24 28 29 33 31 24 12 9 5 3 5 6 4 5 10 10 13 8 9 15 14 13 12 19 24 25 27 21 16 16 14 4 3 7 10 12 3 13 10 12 14 6
23 24 24 24 25 26 25 27 25 28 23 15 12 6 4 2 4 6 8 10 12 12 11 17 17 13 12 27 31 24 28 32 26 4 5 4 3 3 5 9 4 3 9 11 14 9 10
18 18 20 20 20 23 24 22 22 22 26 14 12 7 5 2 9 6 11 11 11 13 13 18 13 20 22 18 5 5 5 5 6 4 5 4 2 3 1 4 5 4 5 4 3 5 9
19 17 17 21 19 16 18 19 17 19 18 18 8 6 2 4 5 5 10 10 6 6 8 13 18 20 6 3 4 2 2 5 3 3 11 9 9 1 4 1 2 2 10 16 8 3 13
19 20 22 22 22 20 15 13 15 14 14 16 8 6 3 3 4 9 5 5 7 7 4 13 15 8 8 3 3 1 2 4 3 4 6 4 5 3 5 3 2 6 18 1 4 5 18
20 21 20 20 22 21 20 19 14 11 14 11 9 9 4 3 14 3 8 15 14 11 5 15 10 6 6 3 3 3 3 2 5 4 4 3 3 3 4 3 2 18 5 6 5 11 13
20 21 21 18 18 20 20 21 19 12 13 10 8 9 7 7 11 7 5 5 5 8 11 3 5 9 4 3 4 3 3 5 5 3 6 2 2 2 2 1 0 4 9 5 8 13 16
Wind_Direction
15 14 15 16 17 20 21 21 22 23 23 22 20 17 4 334 299 281 274 269 261 254 253 266 260 275 307 280 263 258 241 218 201 192 187 189 208 216 258 244 245 216 253 275 279 267 251
11 13 15 16 17 18 20 20 21 21 21 19 18 15 11 358 332 295 273 263 254 251 258 275 277 283 288 255 257 259 243 224 208 195 195 201 208 254 293 282 283 323 312 294 289 230 226
11 12 13 17 18 18 17 18 19 19 18 17 15 14 13 14 9 354 302 274 265 260 259 269 275 288 265 244 247 251 229 216 212 201 210 225 235 234 333 260 316 302 292 274 238 216 230
11 12 14 15 16 16 14 14 15 15 15 14 14 12 11 9 1 354 338 305 283 269 264 267 271 279 259 256 234 247 219 213 213 217 200 215 228 238 263 315 273 237 236 276 332 149 155
11 13 13 12 11 13 11 11 11 10 10 11 10 9 7 4 358 341 344 330 304 272 261 261 271 266 263 243 227 227 211 209 191 204 209 208 172 218 156 227 274 213 259 226 218 164 123
6 8 8 7 8 9 8 7 5 5 4 5 6 5 2 2 2 357 351 341 328 291 260 253 223 267 238 254 207 179 193 193 166 181 168 181 206 221 201 205 227 228 227 266 242 216 202
0 0 3 3 4 2 2 2 1 360 359 358 359 1 359 359 2 8 3 10 353 335 245 213 238 213 174 211 205 193 197 174 170 200 205 192 199 218 211 215 240 272 288 283 285 177 167
2 360 5 1 357 355 353 352 353 353 354 353 352 353 356 356 357 9 10 51 348 301 296 271 256 247 242 197 178 186 178 182 191 212 217 177 237 244 253 263 264 274 266 260 283 260 179
358 355 0 359 355 351 348 345 345 344 344 345 344 345 349 350 348 354 6 7 336 323 266 280 225 226 225 223 221 197 184 207 210 226 229 223 221 67 238 249 233 251 246 263 259 271 210
356 355 359 357 352 346 341 339 337 336 335 336 336 338 340 350 347 345 332 341 338 334 279 179 176 165 181 201 233 217 206 211 228 239 231 250 249 248 241 240 227 248 239 264 258 250 241
354 359 358 357 356 351 344 337 333 329 326 326 328 327 333 335 326 330 321 331 334 1 326 89 138 165 159 205 138 193 199 215 250 214 237 237 211 223 237 237 229 264 93 310 308 272 318
350 350 348 348 347 345 342 340 338 333 326 320 317 316 320 319 321 317 325 321 327 234 247 141 124 168 184 204 197 135 190 201 298 273 259 255 236 240 228 79 47 120 131 197 216 193 261
337 342 344 344 345 346 343 345 345 341 334 323 314 301 303 315 261 291 308 324 264 217 269 135 114 170 243 189 207 185 180 187 204 192 221 234 238 196 186 211 101 182 155 295 276 174 236
342 346 346 348 351 351 353 359 2 357 349 344 330 297 293 302 290 295 231 242 243 282 285 131 132 263 237 303 206 189 244 234 215 253 300 253 305 181 174 213 180 179 180 178 230 210 274
352 353 353 356 0 357 354 352 353 355 351 347 357 61 71 341 332 190 187 217 273 16 8 354 316 250 250 211 205 195 217 249 261 198 209 261 241 33 157 145 158 180 195 241 297 286 277
2 2 359 359 360 359 359 356 358 1 359 352 34 83 22 17 27 91 261 299 358 31 357 344 314 311 306 307 215 206 218 25 237 29 330 260 293 233 103 74 291 188 314 94 224 254 222
5 7 7 10 10 10 9 3 1 2 4 1 54 85 4 354 31 211 255 357 9 11 29 348 338 317 312 313 310 305 291 332 357 339 341 352 254 253 120 197 170 169 236 218 254 221 236
17 14 11 10 12 11 11 8 5 1 7 19 38 61 357 22 266 201 28 348 346 4 14 1 10 357 4 348 327 314 305 19 9 5 10 338 287 273 244 256 208 216 224 216 229 241 233
21 17 14 12 14 16 16 15 11 9 7 16 27 0 357 34 35 21 7 338 325 21 30 7 341 35 22 334 319 332 346 6 22 14 0 348 303 275 292 240 246 257 332 356 336 289 254
23 22 20 16 20 25 25 25 22 21 19 35 17 17 360 50 69 9 3 318 352 349 94 359 261 172 339 315 265 304 312 323 329 309 292 346 297 306 297 7 338 308 1 359 338 267 302
23 22 14 12 14 23 26 25 27 29 30 65 40 59 21 346 10 343 321 313 356 353 6 317 115 351 14 316 311 279 328 319 309 298 249 169 267 311 301 296 300 22 17 41 58 356 44
22 15 20 18 11 5 18 21 25 28 37 61 59 13 351 308 338 340 315 46 356 355 331 316 329 338 325 302 295 322 317 312 280 306 350 321 285 323 290 281 263 90 35 50 52 16 22
27 26 19 12 14 13 12 17 21 25 36 54 56 36 350 320 356 340 41 0 331 335 308 328 331 311 304 310 327 302 288 276 263 275 283 278 257 341 269 302 320 85 20 76 80 37 7
33 24 22 18 15 10 11 13 21 26 32 39 38 23 348 345 6 12 356 351 331 321 293 304 310 308 302 320 314 294 263 256 263 263 334 267 321 198 271 285 213 86 72 72 92 54 33
24 22 16 8 12 18 11 5 10 10 20 31 27 43 23 320 330 20 355 331 317 326 328 309 317 316 312 306 269 289 282 147 114 196 20 157 212 290 265 58 118 187 37 3 1 66 24
16 10 5 5 9 11 13 7 3 3 2 11 3 22 26 334 51 358 324 348 345 339 315 326 327 323 307 263 265 269 284 4 25 30 40 24 7 158 4 333 182 85 318 315 206 214 5
12 11 13 12 10 8 3 352 359 349 353 353 345 341 34 307 290 350 326 326 313 321 281 298 347 323 312 284 299 291 355 350 29 45 346 353 352 39 342 62 73 336 322 17 65 277 335
7 7 6 8 3 0 356 353 348 350 337 334 340 352 341 290 305 316 293 305 301 295 300 331 334 18 299 327 343 360 3 351 87 45 2 59 335 26 328 20 323 353 8 91 272 316 330
360 358 359 359 359 351 352 350 343 336 339 311 341 323 303 306 287 337 2 9 306 295 297 298 272 305 305 322 12 334 3 8 33 88 31 39 2 328 55 237 229 89 102 9 323 316 310
Height
1514 1511 1509 1506 1503 1500 1498 1496 1493 1489 1486 1483 1481 1478 1476 1475 1474 1473 1473 1473 1474 1475 1475 1476 1476 1476 1475 1475 1471 1469 1470 1471 1472 1474 1475 1478 1479 1480 1477 1472 1471 1472 1470 1468 1467 1468 1469
1514 1512 1509 1507 1504 1502 1499 1496 1494 1490 1487 1485 1482 1479 1476 1473 1472 1472 1472 1472 1473 1473 1474 1475 1475 1474 1474 1474 1467 1468 1468 1470 1471 1473 1475 1476 1476 1476 1474 1472 1471 1467 1468 1466 1465 1464 1466
1515 1512 1510 1508 1505 1503 1500 1497 1494 1491 1488 1485 1482 1479 1476 1473 1472 1471 1471 1471 1471 1471 1472 1473 1473 1472 1471 1468 1466 1466 1467 1469 1470 1472 1474 1474 1474 1475 1473 1470 1469 1468 1471 1464 1458 1459 1463
1515 1513 1511 1508 1506 1503 1501 1498 1495 1492 1488 1486 1482 1479 1477 1474 1472 1471 1471 1470 1469 1469 1470 1471 1471 1471 1467 1464 1464 1464 1466 1467 1469 1470 1471 1470 1472 1473 1473 1471 1469 1470 1467 1468 1449 1451 1460
1516 1513 1511 1509 1507 1504 1501 1498 1495 1492 1489 1486 1483 1480 1477 1475 1472 1471 1470 1468 1467 1467 1467 1468 1470 1471 1466 1462 1461 1462 1464 1466 1467 1468 1469 1469 1471 1471 1472 1473 1474 1465 1471 1463 1455 1451 1457
1516 1513 1511 1509 1507 1504 1501 1498 1495 1492 1489 1486 1483 1480 1478 1474 1471 1470 1469 1467 1466 1465 1466 1467 1468 1472 1462 1460 1458 1461 1463 1466 1466 1467 1468 1469 1470 1470 1469 1472 1481 1462 1463 1455 1453 1451 1452
1516 1514 1511 1509 1506 1503 1501 1498 1495 1492 1489 1485 1483 1480 1477 1475 1472 1470 1468 1466 1468 1467 1465 1460 1459 1457 1457 1457 1458 1459 1460 1463 1465 1467 1467 1465 1470 1467 1460 1458 1454 1454 1457 1457 1448 1444 1449
1516 1514 1511 1508 1506 1503 1500 1497 1494 1491 1487 1485 1482 1480 1477 1474 1472 1470 1468 1468 1468 1469 1461 1452 1450 1454 1455 1455 1456 1457 1459 1462 1462 1463 1461 1465 1465 1454 1452 1450 1451 1453 1455 1454 1446 1440 1447
1517 1514 1511 1508 1505 1502 1499 1495 1492 1489 1486 1484 1481 1478 1476 1473 1471 1470 1468 1468 1467 1466 1463 1447 1446 1449 1453 1455 1452 1451 1455 1456 1456 1458 1457 1458 1447 1445 1448 1449 1452 1452 1454 1452 1451 1441 1443
1516 1513 1511 1508 1504 1501 1497 1494 1490 1487 1484 1482 1479 1476 1474 1473 1473 1469 1467 1467 1465 1464 1463 1446 1447 1448 1450 1451 1450 1449 1451 1454 1452 1453 1452 1448 1441 1444 1447 1448 1446 1453 1440 1442 1443 1448 1462
1517 1514 1510 1507 1503 1499 1495 1491 1488 1485 1482 1479 1476 1474 1472 1471 1470 1469 1468 1465 1464 1465 1479 1443 1447 1447 1448 1450 1449 1449 1450 1451 1450 1448 1449 1444 1439 1443 1444 1439 1442 1444 1441 1442 1441 1449 1452
1517 1514 1510 1506 1502 1498 1494 1489 1486 1482 1478 1475 1473 1471 1469 1469 1468 1468 1466 1464 1464 1469 1477 1443 1444 1446 1448 1447 1446 1449 1450 1452 1450 1448 1444 1441 1438 1439 1437 1436 1437 1440 1442 1444 1445 1452 1467
1517 1513 1509 1505 1501 1496 1492 1487 1483 1479 1474 1470 1468 1467 1466 1466 1466 1465 1464 1464 1468 1471 1436 1444 1443 1444 1444 1441 1442 1445 1447 1450 1450 1456 1449 1434 1432 1431 1434 1440 1441 1442 1446 1467 1468 1474 1458
1516 1512 1508 1504 1500 1495 1491 1486 1482 1477 1472 1466 1461 1461 1462 1462 1462 1462 1463 1465 1472 1445 1439 1439 1441 1440 1443 1434 1435 1437 1441 1443 1439 1440 1441 1440 1444 1425 1427 1430 1433 1442 1443 1460 1451 1453 1437
1516 1512 1508 1505 1500 1496 1491 1486 1482 1477 1470 1463 1459 1459 1462 1461 1461 1462 1465 1466 1455 1450 1450 1449 1443 1441 1439 1433 1436 1435 1437 1437 1428 1428 1441 1431 1425 1419 1420 1420 1425 1431 1444 1430 1441 1432 1446
1517 1513 1509 1505 1500 1495 1491 1486 1481 1476 1470 1463 1460 1461 1463 1462 1462 1463 1464 1461 1455 1458 1458 1454 1455 1444 1445 1439 1441 1436 1432 1422 1424 1423 1422 1420 1429 1414 1421 1423 1424 1425 1429 1441 1443 1447 1441
1517 1513 1509 1505 1501 1496 1491 1486 1481 1475 1470 1463 1461 1463 1465 1463 1463 1464 1465 1462 1462 1462 1464 1464 1460 1456 1453 1451 1443 1438 1430 1429 1439 1431 1425 1423 1426 1418 1422 1424 1423 1432 1432 1429 1425 1422 1427
1518 1514 1510 1506 1502 1497 1492 1487 1482 1476 1471 1465 1463 1465 1467 1464 1465 1461 1465 1471 1471 1468 1468 1469 1466 1466 1468 1465 1459 1447 1439 1447 1452 1446 1443 1436 1425 1422 1413 1405 1405 1407 1409 1412 1418 1418 1415
1519 1515 1511 1507 1503 1498 1494 1489 1484 1478 1472 1468 1471 1471 1470 1465 1469 1471 1474 1474 1472 1473 1475 1476 1475 1478 1479 1476 1472 1462 1459 1457 1457 1458 1458 1452 1429 1424 1414 1408 1404 1403 1407 1415 1413 1406 1407
1521 1518 1514 1509 1505 1501 1496 1492 1486 1480 1477 1474 1475 1474 1475 1475 1479 1482 1482 1476 1477 1476 1479 1480 1480 1479 1477 1476 1473 1468 1466 1457 1456 1457 1459 1457 1447 1435 1425 1433 1439 1428 1435 1442 1436 1421 1419
1524 1520 1517 1513 1508 1503 1498 1494 1489 1484 1480 1478 1480 1486 1488 1484 1482 1485 1484 1481 1481 1480 1482 1480 1476 1478 1482 1478 1475 1465 1465 1462 1457 1453 1450 1454 1453 1448 1441 1436 1432 1442 1459 1462 1460 1474 1461
1525 1523 1519 1516 1512 1507 1502 1497 1493 1488 1484 1481 1488 1490 1488 1488 1487 1485 1483 1487 1488 1489 1490 1484 1483 1484 1482 1481 1477 1475 1471 1470 1463 1453 1454 1452 1448 1450 1445 1435 1428 1468 1473 1470 1482 1487 1479
1527 1524 1521 1518 1514 1510 1506 1502 1498 1493 1489 1489 1492 1493 1494 1490 1490 1487 1491 1493 1493 1492 1488 1487 1488 1484 1480 1477 1476 1472 1469 1463 1458 1459 1456 1456 1456 1461 1454 1432 1426 1449 1484 1488 1497 1502 1496
1529 1528 1525 1521 1517 1513 1509 1506 1503 1500 1497 1498 1496 1496 1495 1491 1492 1494 1494 1494 1494 1493 1491 1489 1486 1483 1478 1473 1468 1460 1454 1447 1447 1450 1449 1446 1451 1456 1456 1435 1443 1501 1498 1499 1504 1509 1507
1532 1529 1526 1522 1518 1514 1511 1510 1508 1505 1503 1501 1500 1499 1498 1496 1497 1494 1496 1495 1492 1490 1488 1486 1483 1481 1477 1473 1467 1453 1444 1439 1450 1449 1447 1447 1451 1462 1458 1466 1492 1494 1502 1506 1505 1509 1508
1533 1529 1525 1521 1517 1515 1513 1512 1510 1508 1506 1503 1502 1501 1501 1500 1496 1497 1496 1494 1493 1492 1486 1483 1481 1477 1475 1471 1463 1471 1462 1446 1449 1450 1450 1449 1451 1457 1463 1465 1462 1507 1505 1502 1503 1503 1510
1532 1528 1524 1520 1517 1516 1515 1513 1510 1508 1506 1504 1503 1502 1501 1500 1497 1498 1497 1496 1495 1493 1490 1483 1481 1477 1473 1469 1467 1466 1460 1452 1467 1470 1475 1469 1479 1480 1479 1489 1515 1511 1504 1501 1511 1516 1508
1532 1527 1523 1521 1519 1517 1514 1512 1509 1508 1506 1505 1504 1502 1502 1501 1495 1494 1495 1494 1494 1493 1491 1487 1483 1480 1475 1473 1469 1466 1470 1466 1478 1495 1493 1505 1512 1499 1498 1491 1500 1510 1505 1514 1517 1511 1509
1530 1526 1523 1521 1519 1517 1514 1511 1508 1506 1506 1504 1503 1502 1501 1500 1495 1493 1492 1492 1492 1492 1492 1489 1488 1487 1482 1480 1477 1475 1476 1478 1481 1494 1501 1503 1516 1514 1514 1516 1514 1513 1513 1514 1512 1510 1506